Regional Weather Roundup
Issued by NWS

Home | Current Version | Previous Version | Text Only | Print | Product List | Glossary On
Versions: 1 2 3 4 5 6 7 8 9 10 11 12 13 14 15 16 17 18 19 20 21 22 23 24 25 26 27 28 29 30 31 32 33 34 35 36 37 38 39 40 41 42 43 44 45 46 47 48 49 50
000
ASHW40 PHFO 011843
RWRHI

WEATHER ROUNDUP FOR HAWAII
NATIONAL WEATHER SERVICE HONOLULU HI
800 AM HST SUN FEB 01 2015

THIS IS AN AUTOMATED REPORT THAT HAS NOT BEEN QUALITY CONTROLLED.

NOTE..."FAIR" INDICATES FEW OR NO CLOUDS BELOW 12,000 FEET WITH NO
SIGNIFICANT WEATHER AND/OR OBSTRUCTIONS TO VISIBILITY.

* - THESE SITES REPORT LIMITED FIELDS

HIZ001>004-011900-
KAUAI-NIIHAU-

CITY           SKY/WX    TMP DP  RH WIND       PRES   REMARKS
LIHUE APT        N/A     65  59  81 W3        30.03S
PORT ALLEN*      N/A     68 N/A N/A W5          N/A
POIPU*           N/A     68 N/A N/A NE3         N/A
PRINCEVILLE*     N/A     64 N/A N/A MISG        N/A
KOKOLE POINT*  NOT AVBL
MOLOAA DAIRY*  NOT AVBL
WAIMEA HTS*      N/A     72  57  60 NW3         N/A
PUU OPAE*        N/A     64  57  77 CALM        N/A
PUU LUA*       NOT AVBL
MAKAHA RIDGE*  NOT AVBL
$$

HIZ005>011-011900-
OAHU-

CITY           SKY/WX    TMP DP  RH WIND       PRES   REMARKS
HONOLULU       MOSUNNY   70  62  76 NW7       30.02R
KALAELOA       SUNNY     69  60  73 VRB3      30.03R
KANEOHE MCB    PTSUNNY   70  64  81 CALM      30.01R
WHEELER FIELD  FAIR      64  60  87 N6        30.04R
BELLOWS*         N/A    N/A N/A N/A W3          N/A
KAHUKU*          N/A    N/A N/A N/A E1          N/A
WHEELER*       NOT AVBL
WAIANAE HARBOR NOT AVBL
DILLINGHAM*      N/A     68  61  77 MISG        N/A
KAHUKU TRN*      N/A     64  59  82 SE2         N/A
KAWAILOA*        N/A     64  59  82 NE5         N/A
KII*             N/A     64  63  94 CALM        N/A
MAKUA RANGE*     N/A     72  61  68 E10         N/A
OAHU FOREST NW   N/A    N/A N/A N/A CALM        N/A
SCHOFIELD BRK*   N/A     59  57  94 MISG        N/A
SCHOFIELD S*   NOT AVBL
WAIANAE VLY*     N/A     70  63  78 N3G10       N/A
KUAOKALA*        N/A     70  59  68 CALM        N/A
HONOULIUULI*   NOT AVBL
MOKUOLOE IS*     N/A    N/A N/A N/A MISG        N/A
PALEHUA*         N/A     79  59  50 CALM        N/A
WAIAWA PHB*    NOT AVBL
$$

HIZ012>013-011900-
MOLOKAI-

CITY           SKY/WX    TMP DP  RH WIND       PRES   REMARKS
MOLOKAI AIRPT  MOSUNNY   65  64  97 N6        30.04R
KALAUPAPA      NOT AVBL
MAKAPULAPAI*     N/A     70  64  83 SE6         N/A
MOLOKAI 1*       N/A     64  63  94 S3G12       N/A
PUU ALII*        N/A     56  56 100 E1          N/A
$$

HIZ016-011900-
KAHOOLAWE-

CITY           SKY/WX    TMP DP  RH WIND       PRES   REMARKS
KAHOOLAWE*       N/A     66 N/A N/A NE12        N/A
HAKIOAWA*        N/A     68  68 100 MISG      30.44R
HONOKANAIA*      N/A     73  68  84 VRB15G25    N/A
KANELOA*         N/A     73  72  94 MISG      29.21
KEALIALALO*    NOT AVBL
LUA MAKIKA*    NOT AVBL
$$

HIZ014>015-011900-
LANAI-

CITY           SKY/WX    TMP DP  RH WIND       PRES   REMARKS
LANAI CITY     FAIR      67  66  96 NE14      30.06R
LANAI 1*         N/A     68  68 100 E15G22      N/A
$$

HIZ017>028-011900-
MAUI-

CITY           SKY/WX    TMP DP  RH WIND       PRES   REMARKS
KAHULUI        CLOUDY    72  68  87 NE14      30.00S
KAPALUA-W MAUI LGT RAIN  70  66  88 NE9       30.02R
HANA AIRPORT   LGT RAIN  72  70  94 W3        30.05R
HANA*            N/A     72 N/A N/A W3          N/A
HALEAKALA SUMM   N/A     45   1  16 W8G26       N/A
MAALAEA BAY*   NOT AVBL
HALEAKALA*     NOT AVBL
KAUPO GAP*       N/A     55  41  58 S7G13       N/A
KULA 1*          N/A     50  45  82 CALM        N/A
$$

HIZ023>026-011900-
BIG ISLAND OF HAWAII COAST AND LOWER SLOPES-

CITY           SKY/WX    TMP DP  RH WIND       PRES   REMARKS
KAILUA KONA    SUNNY     73  61  65 CALM      29.97S
HILO           CLOUDY    72  67  84 SW5       30.01R
HONOKAA*       NOT AVBL
KAWAIHAE MWT*    N/A     72 N/A N/A E2          N/A
KAWAIHAE*        N/A     75 N/A N/A NW1         N/A
SOUTH POINT*     N/A     68 N/A N/A NE12        N/A
UPOLU AIRPORT*   N/A    N/A N/A N/A SE7         N/A
KAMUELA*       NOT AVBL
HAKALAU*         N/A    N/A N/A N/A S5          N/A
KALOKO-HONOKO*   N/A     75  57  53 NE3       29.97R
PALI 2*          N/A    N/A N/A N/A E6          N/A
KEALAKOMO*       N/A     72  66  83 NW7         N/A
KAUPULEHU*       N/A     73  57  56 SW1G10      N/A
KAPAPALA*        N/A     62  60  92 N1          N/A
LOWER KAHUKU*    N/A     59  57  94 N2          N/A
PUHE CS*         N/A     70  57  64 E3          N/A
PUHO CS*         N/A     70  49  47 E1          N/A
PTA KEAMUKU*     N/A     57  48  72 CALM        N/A
WAIKOLOA*        N/A     73  54  49 SE3G12      N/A
$$

HIZ027>028-011900-
BIG ISLAND OF HAWAII INTERIOR AND SUMMMITS-

CITY           SKY/WX    TMP DP  RH WIND       PRES   REMARKS
BRADSHAW FIELD SUNNY     49  20  31 SE5       30.29F
MK VISITOR CEN NOT AVBL
MAUNA KEA*       N/A     32 -11  15 NW37        N/A  WCI  16
MAUNA LOA*       N/A     39 -11  11 MISG        N/A
MAUNA LOA 1*   NOT AVBL
PTA KIPUKA*      N/A    N/A N/A N/A E3G9        N/A
PTA RANGE 17*    N/A     48  39  71 E9          N/A
PTA WEST*        N/A     55  41  58 E10G18      N/A
NENE CABIN*      N/A     46  34  61 NE5         N/A
AHUMOA*          N/A     59  11  15 E1G7        N/A
PTA PORTABLE*  NOT AVBL
PUU MALI*      NOT AVBL
$$

HIC003-011900-
NORTHWEST ISLANDS-

CITY           SKY/WX    TMP DP  RH WIND       PRES   REMARKS
MIDWAY ISLAND  LGT RAIN  63  61  94 SE17      29.86R
MIDWAY NOS*    NOT AVBL
FRENCH FRIGATE NOT AVBL
$$

PHZ110>124-180-011900-
BUOY REPORTS

STATION/POSITION TIME  TEMP    WIND        PRES    WAVE   SWELL
                       AIR SEA DIR/SP/G            HT/PER HT/DIR
                 (UTC) (F)     (DEG/KT/KT) (MB)    (FT/S) (FT/D)
BUOY 51001       NOT AVBL
BUOY 51101       1800   68 73  100/  8/ 10 1015.4F   8/11
BUOY 51100       1800   72      50/ 12       N/A
BUOY 51003       1800   76 78   70/ 14/ 16 1015.0R   9/14   8
BUOY 51004       1710   77 78   90/ 17/ 21 1014.9    9/11   7/340
BARBERS PT BUOY  NOT AVBL
WAIMEA BAY BUOY  1800      77                N/A     9/13   8/340
KAILUA BAY BUOY  1800      76                N/A     6/13   5/360
LANAI BUOY       1800      77                N/A     4/12   3/280
BARBERS PT 2     1800      76                N/A     5/13   5/300
PAUWELA MAUI     1800      76                N/A    10/14
HILO             1800      77                N/A     9/14   7/340
KANEOHE BAY BUOY 1800      76                N/A     5/13   3/350
HANALEI KAUAI    NOT AVBL
KAHULUI HARBOR   1800   72 77   60/  7/ 18 1016.4R
HONOLULU HARBOR  1800   74 76   30/  2/  4 1016.3R
KILO NALU        NOT AVBL
HILO HARBOR      1800   72 76  220/  4/  6 1015.8R
MOKUOLOE         1800      75              1016.9R
NAWILIWILI       1800      75                N/A
WHOTS BUOY       NOT AVBL
BUOY 51028       NOT AVBL
$$

......................KEY........................................
  SKY/WX - SKY CONDITIONS/PRESENT WEATHER
  TMP    - TEMPERATURE IN FAHRENHEIT
  DWPT   - DEWPOINT IN FAHRENHEIT
  RH     - RELATIVE HUMIDITY IN PERCENT
  WIND   - DIRECTION AND SPEED /MPH FOR ISLANDS...KTS FOR BUOYS/
  PRES   - MEAN SEA LEVEL PRESSURE IN INCHES OF HG
  VSB    - VISIBILITY IN MILES
  HX     - HEAT INDEX
  WCI    - WIND CHILL INDEX
  VRB    - VARIABLE WIND DIRECTION
  N/A    - NOT AVAILABLE


USA.gov is the U.S. government's official web portal to all federal, state and local government web resources and services.